OBJECT J, 51832

Orbit data source: Space-Track

You're viewing an Uncataloged Satellite

Recently launched and/or uncataloged satellites may have evolving metadata. Metadata may include but not limited to: Owner, Maufacturer, Bus, Motor, and Mission.

OBJECT J, 51832 is a Chinese satellite in SSO that was launched on Sun, 27 Feb 2022 UTC via a CHANG ZHENG 8 launch vehicle from the Wenchang Satellite Launch Center (WSC). Unknown objects in Earth's orbit typically refer to objects detected orbiting the Earth but have not yet been identified or cataloged. These objects could be anything from previously untracked satellites, spent rocket stages, debris from satellite collisions, or even natural meteoroids temporarily captured by Earth's gravity.

Loading next visibility...
Identifier
51832, 2022-019J
Orbit
SSO
Country
Flag of CNCN / PRC
Related business
None
Manufacturer
Unknown
Mission
Civil Imaging
Bus & Motor
Unknown
Mass
Unknown
Launch date (UTC)
2022-02-27 (4 years ago)
Launch vehicle
CHANG ZHENG 8
Launch site
Wenchang Satellite Launch Center (WSC)
Object type
Unknown
Shape & HBR
Box + 2 Pan, 1.0 m
Radar Cross Section
0.583 m², Large (>1 m²)

Expand to show TLE details & history
Last TLE update: 20 hours ago

TLE from 20 hours ago
0 OBJECT J
1 51832U 22019J   25348.94258333  .00000943  00000-0  47611-4 0  9991
2 51832  97.3694  51.3854 0009628 145.1893 214.9974 15.19448485209816
Epoch: 2025-12-14T22:37Z
TLE epoch observation values (Epoch: 2025-12-14T22:37:19.199Z)
Latitude
0.00001°
Longitude
-11.79286°
Altitude
516.031 km
Speed
7.603 km/s
True Right ascension
03h 25m 32s
True Declination
0° 00' 00"
Sunlit
Object was in full shadow at epoch
Visualization orbit readout
Latitude
Unknown
Longitude
Unknown
Altitude
Unknown
Speed
Unknown
Apparent Right ascension
Unknown
Apparent Declination
Unknown
Sunlit
N/A
Visualization observer readout
Local Sidereal Time
17:09:13
Azimuth
Unknown
Elevation
Unknown
Doppler factor
Unknown
Orbital elements
Apogee altitude
511.098 km
Perigee altitude
497.845 km
Semi-major axis
6,882.608 km
Eccentricity
0.00096
Inclination
97.3694°
RAAN
51.3854°
Arg. of periapsis
145.1893°
True anomaly
214.93418°
Mean anomaly
214.9974°
Eccentric anomaly
214.96579°
Mean motion
3.80114 °/min
Orbital period
94.71 mins
BSTAR
0.000047611
Loading maneuver chart data...
Computing Atmospheric mass density...
Loading historical data...
Loading historical data...
Loading historical data...
Loading historical data...
Loading historical data...
Loading historical data...
Loading historical data...

Documentation

Showing up to 5 results
|